Tracking 28920 objects as of 24-May-2024
HD Live streaming from Space Station
objects crossing your sky now

SBIRS GEO 3 (USA 273)

Track SBIRS GEO 3 (USA 273) now!


NORAD ID: 41937
Int'l Code: 2017-004A
Perigee: 35,784.0 km
Apogee: 35,803.6 km
Inclination: 1.4 °
Period: 1,436.1 minutes
Semi major axis: 42164 km
RCS: Unknown
Launch date: January 21, 2017
Source: United States (US)
Launch site: AIR FORCE EASTERN TEST RANGE (AFETR)
Your satellite tracking list
Your tracking list is empty




NASA's NSSDC Master Catalog

Two Line Element Set (TLE):
1 41937U 17004A   24145.16109953 -.00000125  00000-0  00000+0 0  9994
2 41937   1.4240 356.7422 0002334  65.0371 141.6742  1.00271599 27031
Source of the keplerian elements: McCants